User: anonymous   Login
Location: Unspecified
(0.0000°N, 0.0000°E)
Time: 20:11:51
(UTC+00:00)
Language:

STARLINK-31245 - Orbit

View from above orbital plane
View from above orbital plane
View from above satellite
View from above satellite

Ground track
Ground track

The orbit is defined by the following mean orbital elements,

1 58891U          26145.09692927 +.00000000 +00000-0 +48128-4 0 00003
2 58891  53.1622 285.5406 0001061  92.4924 267.6200 15.34390727    04
Epoch (UTC): 25 May 2026 02:19:34
Eccentricity: 0.0001061
inclination: 53.1622°
perigee height: 462 km
apogee height: 463 km
right ascension of ascending node: 285.5406°
argument of perigee: 92.4924°
revolutions per day: 15.34390727
mean anomaly at epoch: 267.6200°

The dashed part of the orbit path shows where the satellite is in the earth's shadow,  

DLR